Regional Weather Roundup
Issued by NWS Northern Indiana

Home | Current Version | Previous Version | Text Only | Print | Product List | Glossary On
Versions: 1 2 3 4 5 6 7 8 9 10 11 12 13 14 15 16 17 18 19 20 21 22 23 24 25 26 27 28 29 30 31 32 33 34 35 36 37 38 39 40 41 42 43 44 45 46 47 48 49 50
000
ASUS43 KIWX 222010
RWRIWX

KIWX WEATHER ROUNDUP
NATIONAL WEATHER SERVICE NORTHERN INDIANA
400 PM EDT TUE JUL 22 2014

NOTE: "FAIR" INDICATES FEW OR NO CLOUDS BELOW 12,000 FEET WITH NO
SIGNIFICANT WEATHER AND/OR OBSTRUCTIONS TO VISIBILITY.

* THESE STATIONS ARE NOT UNDER NWS QUALITY CONTROL. THEY ALSO MAY NOT
  REPORT WEATHER SUCH AS PRECIPITATION OR FOG.

INZ001>027-222100-
NORTHERN INDIANA

CITY           SKY/WX    TMP DP  RH WIND       PRES   REMARKS
GARY*          MOSUNNY   88  70  55 S12G25    29.97F
VALPARAISO     SUNNY     87  69  54 S15       30.00F
MICHIGAN CITY* MOSUNNY   86  66  51 S13       29.98F
LAPORTE*       SUNNY     85  68  55 S10       30.01F
KNOX*          SUNNY     86  67  52 S10       30.00F
SOUTH BEND     SUNNY     88  66  48 SW15      30.00F
ELKHART*       MOSUNNY   86  64  48 SW7G17    30.01
GOSHEN         MOSUNNY   88  68  51 S13       30.01F
MONTICELLO*    SUNNY     83  71  65 SW8       30.03F
LOGANSPORT*    SUNNY     86  64  48 SW10      30.05F
ROCHESTER*     SUNNY     90  64  43 SW7       30.04S
WARSAW*        MOSUNNY   86  66  51 SW7       30.03F
ANGOLA*        SUNNY     90  68  48 SW12      30.03F
FORT WAYNE     MOSUNNY   89  65  44 SW14      30.05F
HUNTINGTON*    MOSUNNY   87  67  52 W8G21     30.04F
PERU/GRISSOM   MOSUNNY   87  70  56 SW14      30.04F
MARION*        SUNNY     85  65  51 SW7       30.06F

$$
INZ028>050-222100-
CENTRAL INDIANA

CITY           SKY/WX    TMP DP  RH WIND       PRES   REMARKS
LAFAYETTE      SUNNY     85  68  56 VRB7      30.03F
KOKOMO*        SUNNY     88  68  51 SW9       30.05S
MUNCIE*        MOSUNNY   87  63  44 SW10G18   30.06S
INDIANAPOLIS   MOSUNNY   87  65  47 SW12G18   30.06S

$$
MIZ043>046-050>051-056>058-064>065-071>073-077>080-222100-
SOUTHWEST LOWER MICHIGAN

CITY           SKY/WX    TMP DP  RH WIND       PRES   REMARKS
BATTLE CREEK   SUNNY     87  66  49 S15       30.01F
BENTON HARBOR  MOSUNNY   86  67  52 S13       29.98F
COLDWATER*     SUNNY     87  68  53 SW10      30.02F
HILLSDALE*     SUNNY     87  67  52 SW7       30.03F
HOLLAND        PTSUNNY   87  67  51 S16       29.96F
GRAND RAPIDS   MOSUNNY   87  69  54 SW14      29.97F
KALAMAZOO      SUNNY     87  68  52 S13       30.00F
STURGIS*       SUNNY     84  70  61 SW12      30.01F
THREE RIVERS*  FAIR      85  71  62 SW9G16    30.01F

$$
OHZ001>008-015>018-024>025-222100-
NORTHWEST OHIO

CITY           SKY/WX    TMP DP  RH WIND       PRES   REMARKS
WAUSEON*         N/A     90  66  45 W13       30.02F
DEFIANCE       MOSUNNY   90  65  43 SW10G17   30.03F
FINDLAY        MOSUNNY   90  68  48 SW17      30.03F
TOLEDO EXPRESS SUNNY     91  64  40 SW13G21   30.02F
TOLEDO METCALF SUNNY     91  63  39 SW15G22   30.03S
LIMA           MOSUNNY   89  65  44 S13       30.05F

$$
&&


USA.gov is the U.S. government's official web portal to all federal, state and local government web resources and services.